Location: Cz?stochówka
(50.8142°N, 19.0915°E)
Time: 09:31:51
(UTC+00:00)

SMAP - Pass Details

Date: 13 January 2026
Orbit: 682 x 683 km, 98.1° (Epoch: 18 February)

Event Time Altitude Azimuth Distance (km) Brightness Sun altitude
Rises 05:24:05 0° 13° (NNE) 3,060 6.3 -11.7°
Reaches altitude 10° 05:26:20 10° 12° (NNE) 2,140 5.5 -11.3°
Maximum altitude 05:31:00 77° 288° (WNW) 706 3.0 -10.6°
Drops below altitude 10° 05:35:39 10° 202° (SSW) 2,122 5.6 -10.0°
Sets 05:37:52 0° 201° (SSW) 3,033 6.4 -9.6°
